This is the latest recevied weather packets stored in our database for station/object W4UWO. If no packets are shown the sender has not sent any weather packets the latest 10 day(s).
| Time | Temp. | Humidity | Pressure | Rain* | Wind** | Luminosity | Snow |
|---|---|---|---|---|---|---|---|
| 1787794464 | 23.89° C | 85% | 1015.7 hPa | 0 mm | - | 0 W/m² | - |
| 1787794159 | 23.89° C | 85% | 1015.6 hPa | 0 mm | - | 0 W/m² | - |
| 1787793855 | 23.89° C | 84% | 1015.7 hPa | 0 mm | - | 0 W/m² | - |
| 1787793550 | 23.89° C | 84% | 1015.7 hPa | 0 mm | - | 0 W/m² | - |
| 1787793245 | 24.44° C | 83% | 1015.7 hPa | 0 mm | - | 0 W/m² | - |
| 1787792940 | 24.44° C | 82% | 1015.4 hPa | 0 mm | - | 0 W/m² | - |
| 1787792635 | 24.44° C | 81% | 1015.6 hPa | 0 mm | - | 0 W/m² | - |
| 1787792332 | 25° C | 79% | 1015.5 hPa | 0 mm | - | 0 W/m² | - |
| 1787792031 | 25° C | 77% | 1015.6 hPa | 0 mm | - | 0 W/m² | - |
| 1787791730 | 25.56° C | 76% | 1015.4 hPa | 0 mm | - | 0 W/m² | - |
| 1787791425 | 26.11° C | 73% | 1015.5 hPa | 0 mm | - | 0 W/m² | - |
| 1787791122 | 26.11° C | 72% | 1015.3 hPa | 0 mm | - | 0 W/m² | - |
| 1787790816 | 26.11° C | 73% | 1015.4 hPa | 0 mm | - | 1 W/m² | - |
| 1787790516 | 26.11° C | 73% | 1015.6 hPa | 0 mm | - | 2 W/m² | - |
| 1787790212 | 26.11° C | 72% | 1015.5 hPa | 0 mm | - | 3 W/m² | - |
| 1787789908 | 26.67° C | 70% | 1015.5 hPa | 0 mm | - | 4 W/m² | - |
| 1787789610 | 27.22° C | 69% | 1015.5 hPa | 0 mm | - | 5 W/m² | - |
| 1787789306 | 27.78° C | 67% | 1015.6 hPa | 0 mm | - | 7 W/m² | - |
| 1787789002 | 27.78° C | 66% | 1015.7 hPa | 0 mm | - | 9 W/m² | - |
| 1787788699 | 27.78° C | 66% | 1015.8 hPa | 0 mm | - | 11 W/m² | - |
| 1787788400 | 27.78° C | 65% | 1015.9 hPa | 0 mm | - | 16 W/m² | - |
| 1787788094 | 28.33° C | 65% | 1015.9 hPa | 0 mm | - | 30 W/m² | - |
| 1787787790 | 28.33° C | 65% | 1015.9 hPa | 0 mm | - | 46 W/m² | - |
| 1787787489 | 28.89° C | 63% | 1015.9 hPa | 0 mm | - | 62 W/m² | - |
| 1787787188 | 28.89° C | 62% | 1015.9 hPa | 0 mm | - | 76 W/m² | - |
* Rain latest hour (hover to see other rain measurements)
** Current wind speed in m/s (hover to see current wind gust speed)